Terminal Aerodrome Forecast
Issued by NWS

Home | Current Version | Previous Version | Text Only | Print | Product List | Glossary On
Versions: 1 2 3 4 5 6 7 8 9 10 11 12 13 14 15 16 17 18 19 20 21 22 23 24
849
FTUS45 KSLC 252325
TAFENV
TAF
KENV 252325Z 2600/2624 11007KT P6SM SKC
     FM260300 VRB04KT P6SM FEW100 SCT150
     FM260900 15005KT P6SM SCT100 BKN170
     FM261500 VRB05KT P6SM BKN150
     FM261900 17010KT P6SM VCSH BKN100
     FM262300 32010KT P6SM VCSH BKN100=

USA.gov is the U.S. government's official web portal to all federal, state and local government web resources and services.